GEFSCGP_500_meanwind_294.txt.gz
Wind_Speed
30 30 30 31 31 33 34 35 36 36 36 36 36 37 36 37 37 37 37 37 37 38 39 39 39 40 41 42 40 40 40 40 41 41 41 41 41 42 42 42 43 44 43 43
31 31 31 32 32 33 34 35 35 35 35 36 36 36 36 36 36 36 36 36 37 38 38 39 39 40 41 41 41 40 40 40 41 41 42 42 42 43 44 43 43 44 45 45
32 32 32 32 32 33 34 35 35 34 33 34 35 35 35 35 35 34 34 35 37 37 38 38 39 39 41 41 41 40 40 40 42 42 42 43 43 43 44 45 44 45 45 45
32 32 32 32 32 34 34 34 34 33 32 32 33 35 32 32 33 33 33 34 35 36 37 37 38 38 39 40 40 39 40 41 42 42 42 42 43 44 44 45 45 46 46 47
32 32 31 32 32 33 34 34 33 32 32 32 32 34 31 31 32 32 33 33 34 35 35 36 36 37 38 39 40 40 40 40 41 42 42 42 42 44 45 47 47 47 47 48
31 31 31 31 32 33 34 33 33 32 32 32 30 32 31 31 31 32 32 32 33 34 34 35 36 35 36 38 38 40 40 41 41 42 43 44 43 44 45 47 48 48 49 49
31 31 31 31 32 32 32 32 32 33 32 31 30 31 30 31 31 31 32 32 32 33 34 34 34 34 34 35 37 39 40 40 40 42 42 44 43 44 45 46 48 49 50 50
32 31 31 31 31 31 31 31 32 33 33 32 31 31 30 30 31 31 31 31 32 32 33 32 32 33 33 34 36 38 39 40 40 41 41 43 43 45 46 46 47 48 49 50
32 32 31 31 30 30 30 30 32 34 34 34 32 31 30 30 31 30 30 30 31 32 32 32 31 32 32 33 35 36 38 39 40 40 41 41 42 45 46 47 48 48 48 49
33 33 32 31 31 30 30 30 31 32 34 34 33 31 30 30 31 31 30 30 30 31 30 31 31 31 31 33 34 36 37 38 39 40 40 41 42 44 47 48 49 49 49 50
33 34 33 33 31 31 30 30 30 32 33 34 34 31 30 31 31 32 31 30 31 30 31 31 31 32 32 33 34 36 37 37 39 40 40 41 42 44 46 48 48 49 50 50
33 34 33 32 32 31 31 30 30 31 32 33 34 32 31 31 31 32 32 31 31 31 31 31 32 32 33 34 34 35 36 37 38 40 40 41 41 43 45 46 46 47 49 50
33 33 33 33 32 32 33 32 31 31 32 32 34 32 32 32 32 32 31 31 31 31 32 32 33 33 33 33 35 36 36 37 38 40 41 41 41 42 43 44 45 46 46 48
33 32 33 33 33 33 32 32 32 31 31 32 32 32 32 33 33 32 32 32 32 32 33 33 33 34 34 34 35 35 36 36 38 40 42 42 42 42 43 44 45 45 46 47
33 34 34 33 33 33 33 32 33 33 32 32 31 31 31 32 32 32 33 33 33 34 33 33 34 34 35 35 35 35 37 37 38 40 42 43 44 44 44 44 45 46 46 46
34 34 35 34 33 34 33 32 33 33 33 33 32 31 31 32 31 32 33 34 35 34 34 34 34 34 35 35 35 35 37 37 38 40 43 43 43 44 44 44 45 45 45 46
34 35 35 34 33 33 33 32 32 32 32 32 33 33 33 33 32 32 32 33 34 34 34 34 33 33 34 34 35 35 36 37 38 40 42 42 43 43 43 43 43 44 44 45
34 34 33 33 32 32 32 31 32 32 32 32 32 33 33 33 33 32 32 32 33 33 34 33 32 33 34 34 34 35 35 36 37 39 40 41 42 42 42 42 42 42 43 44
32 32 33 32 32 31 30 31 31 32 31 31 31 32 32 32 33 33 32 32 32 31 32 32 32 32 33 33 33 34 35 35 36 37 39 40 41 41 40 40 40 41 42 42
32 32 33 32 32 31 30 30 31 32 32 31 31 31 32 32 32 32 32 31 30 29 30 30 31 31 31 31 33 33 34 34 35 35 36 37 38 39 39 39 39 40 40 40
30 31 31 31 32 32 31 30 31 31 31 31 31 31 31 32 32 31 31 30 29 29 28 28 28 29 29 30 30 31 31 32 32 32 33 35 36 37 37 37 38 39 39 39
29 30 30 31 31 31 30 30 30 31 31 31 31 31 31 31 31 30 29 28 28 28 28 27 27 27 27 28 29 29 29 29 30 30 31 33 34 35 36 36 37 37 38 38
28 29 30 30 30 30 29 29 30 30 30 31 30 31 31 31 30 30 29 28 28 29 28 27 26 26 25 25 26 27 27 27 28 28 29 31 33 33 34 35 35 36 37 37
28 28 29 29 29 29 28 28 28 28 28 29 29 30 30 30 30 30 30 29 29 29 28 27 26 25 25 24 24 24 24 25 26 27 28 30 31 31 32 33 34 35 35 35
28 29 29 29 28 28 28 27 27 26 27 27 28 28 29 30 29 30 30 29 29 29 28 27 26 25 24 24 24 24 24 25 25 25 26 27 29 30 31 32 32 33 34 34
28 29 29 28 28 27 26 26 25 25 25 25 25 27 28 28 28 28 28 28 28 28 27 27 26 25 24 24 24 23 23 24 24 25 26 27 27 28 30 31 32 32 34 34

GEFSCGP_500_meanwind_300.txt.gz
Wind_Speed
34 34 34 35 35 36 37 37 37 38 38 40 41 41 40 41 42 43 43 43 42 43 43 44 44 43 43 43 43 44 44 44 43 43 43 43 42 42 42 42 42 43 42 42
34 35 35 36 37 37 37 38 38 38 39 41 41 41 41 41 42 43 43 44 44 44 44 44 44 44 43 43 43 44 44 45 45 44 44 44 44 44 43 43 43 44 43 42
34 35 36 36 36 37 37 38 39 39 40 41 42 42 41 41 42 43 43 43 43 43 44 44 44 44 43 43 43 44 46 45 45 45 44 44 44 44 44 45 44 44 44 44
34 35 35 36 36 37 38 38 40 40 40 41 41 43 40 41 41 42 41 41 42 42 43 44 44 43 43 44 43 45 46 45 45 45 44 44 43 44 45 45 45 45 45 45
34 34 34 35 36 37 37 38 40 40 40 41 40 42 40 40 40 40 40 41 41 41 41 42 43 43 43 44 44 44 45 45 46 46 45 45 44 44 44 45 45 46 46 45
34 34 34 35 35 36 37 38 39 40 40 40 39 41 41 39 40 40 41 41 40 41 41 42 42 42 43 44 44 44 45 45 45 45 45 45 44 44 44 44 44 45 46 46
34 34 34 35 35 35 36 37 38 40 39 40 39 40 39 38 38 39 40 40 40 40 40 40 41 42 42 43 43 44 44 44 44 45 45 45 45 44 44 44 44 45 46 46
34 34 34 34 35 35 35 36 37 39 40 40 40 40 38 37 36 38 39 39 38 39 39 39 40 41 41 42 42 43 42 43 43 45 45 45 46 46 44 44 45 46 46 46
35 35 35 35 35 35 35 36 37 39 41 41 41 40 38 36 36 37 37 37 37 37 37 37 39 39 40 40 40 41 42 42 43 44 45 45 46 46 46 45 45 46 46 47
36 37 36 36 36 35 35 36 37 38 40 42 42 40 38 36 36 36 37 37 36 37 37 38 38 39 40 39 40 40 41 41 42 43 44 45 45 46 46 46 46 46 47 48
37 37 37 36 36 35 34 35 37 38 39 41 42 40 39 38 36 36 36 36 36 36 37 38 38 39 39 39 39 39 40 40 41 42 43 44 44 45 46 46 47 46 47 48
36 37 36 36 35 35 35 35 36 37 38 40 42 40 38 37 35 35 35 35 34 36 37 37 37 37 39 39 38 38 38 39 40 41 43 44 44 44 45 46 47 46 47 48
36 36 36 35 35 34 35 35 37 38 38 39 40 39 38 37 36 34 35 34 35 36 37 37 37 37 37 38 37 37 37 38 39 41 42 43 43 45 46 46 46 46 47 48
35 35 35 35 35 35 35 36 36 37 38 38 38 38 36 36 36 35 34 35 36 37 37 37 37 37 37 37 37 36 37 38 40 41 41 42 43 45 46 46 46 47 47 47
34 35 34 35 35 36 36 37 37 37 37 38 37 37 36 36 36 35 35 35 36 36 36 36 37 37 37 37 37 37 37 38 39 40 41 42 43 44 46 46 47 47 48 48
34 35 35 35 36 36 37 37 37 37 36 36 36 36 36 36 37 36 34 35 35 35 34 36 37 37 37 37 37 38 37 38 38 39 41 42 43 43 44 45 46 47 48 49
34 35 35 36 36 38 37 36 36 36 35 35 34 34 35 36 37 36 35 34 34 34 33 34 35 36 36 37 37 37 37 38 38 39 40 40 41 42 43 44 44 46 47 47
33 34 36 36 37 38 36 36 35 35 34 34 33 33 34 34 35 36 35 34 33 33 34 35 35 35 36 37 37 38 38 38 38 38 38 39 39 40 41 42 43 44 45 45
33 33 35 35 36 37 36 35 35 35 34 34 34 33 33 33 34 34 35 33 32 32 32 33 34 34 35 36 36 36 37 38 38 38 37 37 37 38 39 39 40 40 42 43
33 33 33 34 36 36 34 34 33 34 34 33 34 33 33 32 32 31 32 32 31 31 31 32 33 34 34 35 35 35 36 36 36 36 37 36 36 36 36 37 38 39 40 41
33 33 33 34 35 34 33 33 32 33 33 32 32 32 32 32 31 31 31 31 31 31 31 31 32 33 33 33 33 33 34 34 35 35 35 36 36 35 35 35 36 37 38 40
32 33 33 33 33 33 32 32 32 33 33 32 32 32 32 31 30 30 30 30 30 31 31 31 31 31 31 31 31 32 32 32 33 34 34 34 35 35 35 36 37 37 38 39
32 32 32 33 33 33 33 32 32 32 32 32 32 32 32 31 30 30 29 29 29 30 31 31 31 30 30 30 30 30 31 31 31 32 32 32 33 34 35 36 36 36 36 37
32 32 33 33 32 32 32 32 32 31 31 32 31 31 31 30 29 29 29 29 28 29 30 30 30 30 29 29 30 29 28 28 29 30 30 30 31 33 34 35 35 34 35 36
32 32 32 31 31 31 31 31 31 30 30 31 31 31 31 30 30 30 30 29 29 29 29 29 29 29 28 27 28 27 26 25 25 25 26 28 29 29 30 32 32 33 33 34
30 30 30 30 30 30 30 30 30 30 30 30 30 31 31 31 30 29 30 30 29 29 29 29 28 28 27 26 25 24 24 24 24 24 23 25 27 28 28 29 30 31 32 33

GEFSCGP_500_meanwind_306.txt.gz
Wind_Speed
33 33 33 33 34 35 35 36 36 36 36 37 36 37 38 39 39 40 41 42 42 42 42 42 43 43 43 43 42 42 42 41 42 42 41 41 41 40 40 41 41 41 42 42
34 34 34 34 34 35 35 36 35 36 37 37 37 36 38 39 39 40 41 42 43 43 43 43 43 44 44 44 43 43 43 43 43 43 43 43 42 42 41 42 43 43 43 43
34 34 34 34 34 35 35 35 36 36 37 38 39 38 37 38 38 39 40 41 43 43 43 43 43 44 45 44 44 44 44 45 44 44 44 45 44 44 43 43 43 43 43 43
34 34 34 34 34 35 35 36 36 37 37 38 39 40 37 38 38 39 39 40 42 43 44 44 44 45 45 45 44 44 45 46 46 46 46 46 46 45 44 44 43 42 43 43
34 34 34 34 34 35 35 36 36 36 37 38 38 40 39 38 38 39 39 40 41 43 44 44 45 45 46 46 45 45 46 46 46 47 46 46 46 46 45 44 44 43 43 44
33 33 34 34 34 35 35 36 36 37 37 38 37 39 40 39 39 39 40 40 40 42 43 44 44 45 46 46 46 46 46 47 47 47 47 47 47 46 46 46 45 44 44 44
33 33 33 33 34 35 35 35 36 38 38 39 38 39 40 39 38 39 39 40 40 41 42 44 44 45 46 46 46 46 47 47 47 47 48 48 47 47 46 46 45 45 44 44
33 33 33 34 34 35 34 35 35 38 39 39 38 39 39 39 39 39 39 39 40 40 42 43 44 44 45 45 45 46 46 47 47 48 48 48 48 48 47 46 46 46 46 45
33 33 33 34 34 34 34 34 35 36 38 39 39 39 39 38 38 39 39 39 39 40 41 42 43 44 45 45 45 46 47 47 47 48 48 48 49 49 49 48 48 47 47 46
32 33 33 33 33 33 33 33 34 34 36 38 38 38 38 38 38 38 38 38 39 40 40 41 42 43 44 45 45 46 47 48 48 48 49 49 49 50 50 49 49 48 48 47
32 33 33 33 32 32 32 32 33 34 35 36 38 38 38 38 38 39 38 38 38 39 40 40 40 41 42 43 44 45 46 46 47 48 48 49 49 49 50 49 48 48 48 48
31 32 32 32 32 32 32 32 32 33 35 35 38 39 37 38 38 39 39 38 38 39 39 39 39 40 40 41 42 43 44 44 45 46 47 48 49 49 50 50 49 49 49 50
32 32 32 32 31 31 31 31 32 33 35 35 36 37 36 37 38 38 38 38 38 37 37 37 38 38 39 39 41 42 42 43 44 44 44 46 47 48 50 51 51 50 50 51
31 31 31 32 32 31 31 31 32 33 34 35 35 35 35 36 37 37 36 37 36 36 36 36 37 37 37 38 39 40 40 41 41 42 42 44 45 46 48 50 50 50 51 51
30 30 30 30 31 30 30 31 31 32 33 35 34 34 34 34 34 35 34 34 34 35 36 36 37 36 36 36 37 37 38 39 39 40 41 42 43 45 46 47 48 49 50 50
30 30 30 30 30 31 31 30 31 32 32 33 33 33 33 33 33 33 33 32 32 33 34 35 36 35 33 33 33 34 37 38 39 40 40 41 42 42 43 45 46 46 47 48
30 30 30 30 30 31 31 30 31 32 32 32 32 32 32 32 32 32 33 33 32 32 33 34 35 35 35 34 34 34 36 37 38 39 40 41 41 42 43 43 45 46 46 46
30 31 30 30 31 31 30 31 31 32 31 31 31 31 31 31 32 33 33 32 32 32 32 32 33 34 34 34 34 35 36 37 38 39 40 40 41 42 43 44 44 44 44 44
28 29 30 30 31 32 31 31 32 32 31 31 31 31 32 32 32 32 32 32 31 31 30 30 30 32 33 33 34 35 36 36 37 39 40 41 42 42 43 43 44 45 45 45
28 29 30 31 32 32 31 32 32 33 32 32 32 32 32 32 32 31 31 31 30 30 29 29 28 29 29 31 32 33 34 35 35 36 38 39 41 42 42 41 42 42 43 44
29 29 29 29 30 31 31 31 32 32 33 33 33 33 32 32 32 31 30 29 29 28 28 28 27 27 27 28 29 30 31 32 34 34 36 37 38 39 39 39 40 41 41 41
28 28 28 29 30 31 31 32 32 32 32 32 33 32 32 32 31 30 29 28 28 28 27 27 27 27 27 27 28 29 29 30 32 32 33 34 35 36 37 38 39 39 40 40
27 27 28 29 30 30 31 31 31 31 31 31 31 31 30 30 30 29 28 27 27 27 27 27 27 27 27 28 28 28 29 30 30 30 31 31 32 33 35 35 35 36 37 38
27 27 28 28 28 28 29 29 30 30 30 30 30 30 30 29 29 28 28 27 27 26 26 27 27 27 27 28 28 28 27 28 29 29 30 30 30 31 32 32 33 33 35 36
26 26 26 26 26 27 28 28 28 29 30 30 29 29 29 29 29 29 28 27 26 26 26 26 26 26 26 26 27 27 27 27 27 28 28 29 29 30 30 31 31 32 33 34
24 26 26 26 26 26 27 28 28 28 29 29 29 29 29 29 29 28 28 27 27 26 26 26 25 25 25 26 25 26 26 26 26 27 27 27 28 29 30 30 31 32 32 33

GEFSCGP_500_meanwind_312.txt.gz
Wind_Speed
37 38 38 38 38 39 39 39 40 39 39 40 40 41 41 41 42 42 42 42 43 43 44 45 45 44 44 45 45 45 45 44 43 43 43 42 42 42 43 43 43 43 43 42
37 38 38 38 39 39 39 40 40 40 40 41 41 41 41 41 41 42 42 42 43 44 45 46 46 46 46 46 46 46 46 45 45 44 44 44 44 43 43 44 44 43 43 43
38 38 38 39 39 40 40 40 41 41 41 42 43 43 41 41 41 41 42 42 43 44 45 46 47 47 47 46 46 46 47 46 46 46 45 46 46 45 45 45 44 43 43 43
38 38 38 38 39 39 40 40 41 41 42 42 42 44 42 42 41 41 41 42 43 44 45 46 47 47 47 47 46 46 47 48 47 47 46 47 47 47 46 46 45 44 44 44
38 38 38 38 39 39 40 40 41 41 42 43 42 44 43 42 42 41 41 42 43 43 44 45 46 47 47 47 47 47 48 49 49 49 48 48 47 48 47 46 46 44 44 45
38 38 38 38 38 39 40 40 40 41 42 43 41 43 44 43 42 41 41 42 42 43 44 44 45 46 47 47 47 47 48 49 49 49 49 48 48 48 47 47 47 46 45 46
38 37 37 37 38 38 39 39 40 41 42 43 41 43 44 43 42 42 41 42 43 43 43 43 44 44 46 46 47 47 48 48 49 49 49 49 48 48 48 48 48 48 47 46
37 37 36 36 37 37 37 38 39 41 42 42 41 43 43 42 42 41 41 42 43 43 43 44 44 45 45 46 47 47 47 48 49 49 49 49 49 49 49 49 49 49 47 47
35 36 35 35 36 36 37 37 37 39 41 42 42 43 42 41 41 41 42 42 42 43 43 44 44 44 45 45 46 47 47 48 49 49 50 50 50 50 50 50 50 49 48 47
35 35 34 35 36 36 36 36 36 37 39 41 41 41 41 40 41 42 42 43 42 43 43 44 44 44 45 46 47 47 47 48 49 49 50 50 50 50 50 51 51 51 50 49
34 35 35 35 35 36 36 35 36 37 38 39 40 40 39 39 41 41 42 42 42 43 44 44 44 45 44 45 46 47 47 47 48 49 49 50 50 50 50 51 52 52 52 51
34 35 35 35 35 34 35 35 35 37 37 38 40 40 39 39 40 41 41 42 42 43 43 44 44 44 44 44 45 45 46 47 47 48 49 49 49 49 50 50 51 51 52 52
34 35 35 35 35 35 35 35 35 36 38 38 39 39 39 40 41 41 41 41 42 42 42 43 43 43 43 44 44 44 45 46 47 47 47 48 48 49 49 49 50 51 51 51
35 35 35 35 35 35 35 35 35 36 37 38 38 38 38 39 40 40 41 41 41 41 41 42 42 42 42 43 43 43 44 45 45 45 46 47 47 47 48 48 49 51 51 51
34 35 35 35 35 35 35 35 35 35 36 38 38 38 38 39 39 39 40 40 40 40 40 40 41 41 41 41 42 42 43 43 44 45 45 46 46 46 47 47 48 50 51 51
34 34 34 33 33 34 34 33 34 34 34 36 37 37 38 39 39 38 38 39 38 39 39 39 39 39 39 40 40 40 41 42 43 44 44 45 45 46 47 47 48 48 49 50
33 33 32 31 31 33 32 31 32 33 33 34 35 35 36 37 37 37 37 37 37 37 37 38 37 38 38 38 38 38 39 40 41 41 42 43 44 44 46 47 48 48 48 49
31 31 31 31 31 31 30 31 32 32 32 33 33 33 34 36 36 36 36 36 36 35 36 37 37 37 36 36 36 37 37 38 39 39 39 40 42 43 43 44 45 46 47 48
31 31 31 31 31 30 29 29 30 30 30 31 31 32 33 34 35 35 35 35 36 35 36 36 36 35 34 34 35 35 36 36 36 37 36 37 38 40 41 42 43 43 44 46
29 29 30 30 31 31 30 30 30 31 30 30 31 32 33 34 34 33 34 35 35 35 34 34 33 34 33 32 32 32 33 33 33 34 34 34 35 36 38 39 40 41 42 43
27 28 29 29 30 30 30 31 30 31 31 31 31 32 33 33 34 33 33 34 34 34 33 33 33 32 32 31 32 32 32 32 32 32 33 33 33 33 34 36 37 38 39 41
26 27 28 28 29 29 30 31 31 31 31 31 32 32 33 33 33 33 33 33 33 33 32 32 32 31 30 30 31 31 31 31 31 31 31 31 31 31 32 33 34 35 36 38
26 26 27 28 28 29 30 30 31 31 31 31 32 32 32 31 32 32 32 32 33 33 33 32 31 31 30 30 29 29 29 29 29 30 30 31 31 32 32 32 33 33 34 36
27 26 27 27 28 29 29 30 31 31 31 30 31 31 31 32 32 32 32 32 32 32 32 31 30 29 29 30 30 29 28 29 29 30 30 29 30 32 32 32 32 33 34 35
28 28 28 28 28 29 29 31 31 31 31 30 30 30 32 32 33 33 33 32 32 31 30 30 29 28 28 28 29 30 30 30 30 30 31 32 32 32 32 33 33 32 32 33
27 28 29 30 30 31 30 31 31 31 31 30 30 31 32 32 33 33 33 32 31 30 29 28 28 27 27 27 28 29 30 30 31 31 32 33 33 32 32 33 33 34 33 33